Terminal Aerodrome Forecast
Issued by NWS

Home | Current Version | Previous Version | Text Only | Print | Product List | Glossary On
Versions: 1 2 3 4 5 6 7 8 9 10 11 12 13 14 15 16 17 18
000
FTAK31 PAJN 302300
TAFAPG
TAF
PAPG 302327Z 3100/3124 04004KT P6SM BKN012
     FM310300 VRB02KT P6SM VCFG FEW002
     FM310500 00000KT 1/2SM FG VV002
     FM311600 VRB02KT P6SM BCFG FEW003
     FM311800 04006KT P6SM SKC
      AMD LTD TO CLD VIS AND WIND 3106/3115=

USA.gov is the U.S. government's official web portal to all federal, state and local government web resources and services.